Location: Ingleside Terrace
(37.7242°N, 122.4664°W)
Time: 14:30:22
(UTC+00:00)

Daily predictions for brighter satellites

Satellite Brightness Start Highest point End
(mag) Time Altitude Azimuth Time Altitude Azimuth Time Altitude Azimuth
ATLAS 5 CENTAUR R/B 4.5 12:24:23 19° NNE 12:24:23 19° NNE 12:25:17 10° NNE
Cosmos 2263 Rocket 2.6 12:29:12 30° S 12:31:54 62° ESE 12:37:31 10° NNE
CENTAUR R/B 3.9 12:27:26 22° NNW 12:32:48 49° NE 12:41:19 10° SE
Cosmos 1386 Rocket 4.4 12:27:18 10° S 12:33:43 87° E 12:40:07 10° N
ATLAS 2AS CENTAUR R/B 3.9 12:26:39 10° S 12:34:07 49° ESE 12:41:40 10° NE
USA 234 4.4 12:31:27 10° ENE 12:37:30 39° SE 12:43:32 10° SSW
Delta 2 Rocket 4.2 12:42:32 54° SSE 12:42:32 54° SSE 12:46:20 10° ESE
Meteor 1-31 Rocket 4.4 12:40:17 10° NNE 12:45:38 28° SSE 12:47:40 10° S
Cosmos 773 Rocket 4.1 12:44:17 56° N 12:45:23 76° ENE 12:50:37 10° SSE
NOSS 3-2 (A) 4.1 12:43:27 33° NNW 12:47:34 83° ENE 12:56:14 10° SE
Nadezhda 1 Rocket 3.9 12:45:40 20° N 12:50:20 79° W 12:56:35 10° S
Lacrosse 5 2.8 12:49:39 17° SSW 12:53:15 46° SE 12:58:06 10° NE
Cosmos 1603 4.5 12:50:54 18° N 12:54:52 49° ENE 13:00:18 10° SE
ALOS 2.9 12:51:13 10° N 13:00:20 11° SSW 13:00:32 10° SSW
Lacrosse 4 Rocket 3.9 12:55:22 10° N 12:58:25 19° NE 13:01:33 10° E
FENGYUN 3A 3.5 12:55:21 10° N 13:00:45 70° WNW 13:06:06 10° SSW
USA 238 DEB 3.8 12:58:32 28° NNW 13:02:49 89° ENE 13:10:25 10° SSE
USA 238 3.8 12:58:36 28° NNW 13:02:55 88° ENE 13:10:30 10° SSE
Cosmos 1943 3.9 13:00:26 14° N 13:05:12 53° ENE 13:10:45 10° SE
CZ-4B R/B 2.7 13:02:46 10° SSE 13:04:31 30° SSE 13:04:31 30° SSE
Cosmos 1461 4.4 13:05:30 20° N 13:08:15 38° NE 13:12:28 10° ESE
Cosmos 1151 Rocket 4.2 13:04:51 10° N 13:08:54 41° E 13:12:56 10° SSE
Cosmos 489 Rocket 4.5 13:04:02 15° NNW 13:09:28 85° ENE 13:15:49 10° SSE
Cosmos 1633 2.6 13:09:20 10° S 13:12:49 72° E 13:16:21 10° NNE
OAO 2 Rocket 4.0 13:12:00 29° SW 13:14:11 48° SSE 13:19:07 10° E
CZ-4B R/B 3.6 13:10:23 10° NNE 13:14:52 63° E 13:19:13 10° S
ADEOS 3.5 13:10:08 10° N 13:15:15 57° WNW 13:20:20 10° SSW
Milstar 3 Cent rocket 4.2 13:10:23 21° SW 13:15:39 50° S 13:30:18 10° E
Atlas Centaur 2 3.7 13:13:26 12° SW 13:17:54 27° SSE 13:22:07 10° ESE
SAR-Lupe-4 3.9 13:14:54 10° SSE 13:18:25 63° ENE 13:20:48 19° N
Cosmos 1777 Rocket 4.5 13:20:18 37° NW 13:20:18 37° NW 13:24:46 10° N
Cosmos 2227 4.3 13:16:47 23° SW 13:20:03 50° WNW 13:25:31 10° NNE
TIMED 4.4 13:21:44 39° NW 13:23:07 62° WSW 13:27:25 10° S
Okean 3 Rocket 3.4 13:19:26 10° SSW 13:23:47 73° W 13:28:11 10° N
SJ 16-02 1.2 13:21:46 10° SSW 13:26:10 84° WNW 13:30:37 10° NNE
Cosmos 1766 Rocket 3.5 13:23:18 10° SSW 13:27:45 71° W 13:32:14 10° N
PSLV R/B 4.5 13:24:51 10° SSE 13:28:56 60° ENE 13:33:01 10° N
FALCON 9 DEB 3.7 13:29:47 17° SSW 13:31:58 51° SE 13:35:07 10° ENE
Cosmos 1184 Rocket 2.6 13:28:46 10° SSW 13:32:01 73° W 13:35:18 10° N
H-2A R/B 3.8 13:28:29 10° NNE 13:32:17 49° E 13:36:02 10° S
USA 276 4.1 13:33:43 18° SSW 13:33:43 18° SSW 13:35:23 10° S
COSMO-SKYMED 1 2.5 13:29:18 10° SSE 13:33:38 85° W 13:38:00 10° NNW
CZ-4C R/B 2.3 13:29:52 10° SSW 13:34:30 64° ESE 13:39:56 10° NE
SAR-Lupe-1 3.9 13:31:56 10° S 13:35:30 79° WSW 13:38:25 15° NNW
Cosmos 1538 Rocket 4.0 13:31:31 15° NNW 13:35:52 64° WSW 13:41:03 10° S
ERS-2 2.7 13:33:52 10° SSW 13:37:12 35° W 13:37:27 34° W
Cosmos 1408 Rocket 3.7 13:32:54 10° S 13:37:20 78° E 13:41:49 10° N
ASTRO E2 4.0 13:35:42 21° SW 13:37:35 31° S 13:41:08 10° ESE
SL-16 R/B 4.0 13:45:08 13° WSW 13:45:08 13° WSW 13:46:36 10° SW
Cosmos 158 Rocket 4.3 13:40:07 10° N 13:44:58 61° ENE 13:49:53 10° SSE
OAO 3 Rocket 4.1 13:42:38 21° WSW 13:45:09 36° SSW 13:49:28 10° SE
Cosmos 2181 Rocket 3.9 13:39:29 10° N 13:45:43 78° W 13:51:49 10° S
SJ-12 4.3 13:43:10 10° N 13:46:58 40° WNW 13:50:45 10° SW
BREEZE M DEB (TANK) 3.6 13:35:30 10° SW 13:48:18 76° SE 13:51:51 10° ENE
ATLAS 3B R/B 3.9 13:43:09 10° NNW 13:49:38 40° NE 13:56:20 10° ESE
Meteor PRIRODA 3.8 13:47:19 10° N 13:50:56 49° WNW 13:54:33 10° SSW
Cosmos 1844 Rocket 3.4 13:46:28 10° S 13:51:58 59° ESE 13:57:32 10° NNE
Cosmos 1709 Rocket 4.5 13:46:14 10° SW 13:52:03 38° WNW 13:57:56 10° N
Cosmos 1689 Rocket 2.1 13:51:54 10° S 13:54:41 49° W 13:56:51 15° NNW
Meteor 1-26 Rocket 4.2 13:49:28 10° NNW 13:55:14 70° W 14:00:48 10° S
Cosmos 1898 Rocket 3.6 13:51:36 10° SSW 13:56:53 85° ESE 14:02:15 10° NNE
GPS 2-04 Rocket1 3.1 13:55:32 14° WSW 13:58:45 54° S 14:02:23 10° E
Cosmos 1933 4.1 13:58:55 10° NNW 14:02:34 31° W 14:06:11 10° SSW
ATLAS CENTAUR R/B 3.8 14:00:35 10° N 14:02:56 16° NE 14:05:21 10° E
Cosmos 1606 4.4 14:04:51 14° W 14:04:51 14° W 14:06:35 10° WSW
NOSS 3-4 (A) 4.0 14:00:17 10° WSW 14:05:37 34° NW 14:11:15 10° NNE
ASTRO F (AKARI) 4.4 14:02:41 10° N 14:05:39 47° WNW 14:08:39 10° SSW
NOSS 3-4 (C) 4.0 14:00:23 10° WSW 14:05:44 35° NW 14:11:23 10° NNE
PSLV R/B 3.6 14:02:03 10° N 14:05:56 77° WNW 14:09:42 10° SSW
CZ-3A R/B 4.5 14:02:21 10° SW 14:06:09 29° SSE 14:19:48 10° ESE
Cosmos 2084 4.0 14:03:55 14° NW 14:07:34 44° WSW 14:11:50 10° S
Cosmos 2228 Rocket 4.3 14:03:48 10° N 14:08:02 44° E 14:12:13 10° SSE
NOSS 3-2 (C) 4.4 14:00:57 10° NW 14:08:36 53° WSW 14:16:57 10° S
H-2A R/B 2.4 14:07:21 10° NNE 14:11:14 81° ESE 14:15:02 10° S
Envisat 3.0 14:06:13 10° NNE 14:11:19 89° ESE 14:16:24 10° SSW
RESURS DK-1 2.3 14:09:03 10° SSW 14:13:12 75° WNW 14:17:22 10° NNE
SL-4 R/B 4.1 14:13:37 10° NW 14:15:05 12° NNW 14:16:31 10° N
Meteor 2-3 Rocket 4.4 14:10:36 10° SW 14:15:38 32° WNW 14:20:46 10° N
Cosmos 2263 Rocket 3.5 14:12:21 10° W 14:16:16 19° NW 14:20:14 10° N
FALCON 9 DEB 3.4 14:13:53 10° WSW 14:16:56 41° NW 14:20:00 10° NE
Cosmos 1782 3.1 14:13:59 10° NNW 14:17:51 45° W 14:21:41 10° SSW
Aureole 2 Rocket 3.7 14:16:51 10° S 14:19:12 32° ESE 14:21:32 10° NE
Cosmos 1937 Rocket 3.4 14:14:39 10° SSW 14:19:47 83° WNW 14:24:59 10° NNE
Cosmos 2074 Rocket 4.0 14:14:02 10° SSW 14:20:07 59° W 14:26:16 10° N
USA 234 3.4 14:14:13 10° NE 14:20:35 56° NW 14:26:55 10° WSW
BREEZE-M DEB (TANK) 3.2 14:17:47 10° WSW 14:21:04 60° NNW 14:31:03 10° NE
CENTAUR R/B 3.7 14:15:45 10° NW 14:23:38 44° WSW 14:31:52 10° S
ATLAS 2AS CENTAUR R/B 3.4 14:17:52 10° WSW 14:25:16 41° NW 14:32:38 10° NNE
MOS 1-B 4.4 14:20:06 10° NNE 14:25:56 81° WNW 14:31:44 10° SSW
COSMOS 2455 3.8 14:20:57 10° S 14:26:47 54° ESE 14:32:40 10° NE
Cosmos 1515 Rocket 3.9 14:23:24 10° NNW 14:27:42 47° W 14:31:58 10° SSW
Meteor 1-4 Rocket 3.7 14:25:08 10° NW 14:27:50 22° W 14:30:31 10° SW
Cosmos 405 Rocket 2.5 14:24:50 10° SSW 14:28:29 73° W 14:32:12 10° N
Genesis I 3.2 14:25:05 10° SW 14:28:50 59° WNW 14:32:38 10° NNE
CZ-4B R/B 3.4 14:27:50 10° NNE 14:33:11 78° ESE 14:38:37 10° S
Cosmos 2184 Rocket 4.3 14:27:26 10° SSW 14:33:27 48° W 14:39:35 10° N
CZ-2C R/B 3.4 14:29:26 10° SSE 14:34:52 60° ENE 14:40:14 10° N
Lacrosse 5 2.7 14:31:55 10° W 14:36:22 30° NW 14:40:49 10° NNE
